Change the Weather History Date:

Thursday, April 17, 2014

  Actual Average Record
Temperature  
Mean Temperature 38 °F -  
Max Temperature 47 °F 62 °F 96 °F (2002)
Min Temperature 30 °F 41 °F 30 °F (2014)
Degree Days  
Heating Degree Days 26    
Moisture  
Dew Point 27 °F    
Average Humidity 65    
Maximum Humidity 93    
Minimum Humidity 48    
Precipitation  
Precipitation 0.00 in - - ()
Sea Level Pressure  
Sea Level Pressure 30.64 in    
Wind  
Wind Speed 8 mph (NE)    
Max Wind Speed 16 mph    
Max Gust Speed 23 mph    
Visibility 10 miles    
Events      
Averages and records for this station are not official NWS values.
T = Trace of Precipitation, MM = Missing Value Source: NWS Daily Summary

Daily Weather History Graph

Daily Weather History Graph

Search for Another Location

Airport or City:

Trip Planner

Search our weather history database for the weather conditions in past years. The results will help you decide how hot, cold, wet, or windy it might be!

Date:

Astronomy

Apr. 17, 2014 Rise Set
Actual Time 6:17 AM EDT 7:38 PM EDT
Civil Twilight 5:49 AM EDT 8:07 PM EDT
Nautical Twilight 5:15 AM EDT 8:41 PM EDT
Astronomical Twilight 4:40 AM EDT 9:16 PM EDT
Moon 10:22 PM EDT (4/17) 7:47 AM EDT (4/17)
Length of Visible Light 14h 17m
Length of Day
13h 21m
Waning Gibbous, 94% of the Moon is Illuminated
Apr 17
Waning Gibbous
Apr 22
Last Quarter
Apr 29
New
May 6
First Quarter
May 14
Full

Hourly Weather History & Observations

Time (EDT) Temp. Windchill Dew Point Humidity Pressure Visibility Wind Dir Wind Speed Gust Speed Precip Events Conditions
12:58 AM 34.7 °F 30.6 °F 23.9 °F 65% 30.57 in 10.0 mi NE 4.6 mph - N/A   Clear
1:58 AM 32.7 °F 28.3 °F 23.2 °F 68% 30.58 in 10.0 mi NNE 4.6 mph - N/A   Clear
2:58 AM 31.1 °F 25.4 °F 22.8 °F 71% 30.58 in 10.0 mi NNE 5.8 mph - N/A   Clear
3:58 AM 31.5 °F 24.2 °F 22.1 °F 68% 30.57 in 10.0 mi NNE 8.1 mph - N/A   Clear
4:58 AM 30.4 °F 24.5 °F 22.3 °F 72% 30.58 in 10.0 mi NNE 5.8 mph - N/A   Clear
5:58 AM 30.4 °F 24.5 °F 21.9 °F 71% 30.61 in 10.0 mi NNE 5.8 mph - N/A   Clear
6:58 AM 30.4 °F 24.5 °F 23.9 °F 77% 30.63 in 10.0 mi NNE 5.8 mph - N/A   Clear
7:58 AM 37.9 °F 30.9 °F 29.3 °F 71% 30.66 in 10.0 mi NE 10.4 mph - N/A   Scattered Clouds
8:58 AM 42.1 °F 34.5 °F 26.4 °F 54% 30.68 in 10.0 mi East 15.0 mph - N/A   Partly Cloudy
9:58 AM 44.4 °F 37.5 °F 25.7 °F 48% 30.70 in 10.0 mi ENE 15.0 mph 19.6 mph N/A   Clear
10:58 AM 45.3 °F 38.7 °F 29.3 °F 54% 30.70 in 10.0 mi ENE 15.0 mph 23.0 mph N/A   Scattered Clouds
11:58 AM 44.6 °F 38.4 °F 29.1 °F 55% 30.71 in 10.0 mi NE 12.7 mph - N/A   Mostly Cloudy
12:58 PM 46.4 °F 39.8 °F 30.2 °F 53% 30.70 in 10.0 mi ENE 16.1 mph 21.9 mph N/A   Scattered Clouds
1:58 PM 47.5 °F - 29.8 °F 50% 30.68 in 10.0 mi ENE 13.8 mph 21.9 mph N/A   Overcast
2:58 PM 44.6 °F 38.4 °F 29.7 °F 56% 30.68 in 10.0 mi ENE 12.7 mph 19.6 mph N/A   Overcast
3:58 PM 44.1 °F 39.0 °F 28.4 °F 54% 30.66 in 10.0 mi East 9.2 mph 17.3 mph N/A   Mostly Cloudy
4:58 PM 45.5 °F 38.6 °F 29.3 °F 53% 30.65 in 10.0 mi East 16.1 mph - N/A   Scattered Clouds
5:58 PM 43.9 °F 37.2 °F 28.4 °F 55% 30.63 in 10.0 mi East 13.8 mph - N/A   Clear
6:58 PM 41.2 °F 35.0 °F 28.8 °F 61% 30.64 in 10.0 mi East 10.4 mph - N/A   Partly Cloudy
7:58 PM 38.1 °F 32.9 °F 28.6 °F 69% 30.63 in 10.0 mi ENE 6.9 mph - N/A   Clear
8:58 PM 36.1 °F 32.3 °F 28.9 °F 75% 30.63 in 10.0 mi ENE 4.6 mph - N/A   Clear
9:58 PM 35.4 °F 30.5 °F 29.7 °F 80% 30.61 in 10.0 mi NE 5.8 mph - N/A   Clear
10:58 PM 33.8 °F 28.6 °F 32.0 °F 93% 30.58 in 10.0 mi NNE 5.8 mph - N/A   Mostly Cloudy
11:58 PM 36.0 °F 32.1 °F 31.6 °F 84% 30.60 in 10.0 mi NNE 4.6 mph - N/A   Overcast